Weather History for Tarboro, NC

Change the Weather History Date:

Thursday, August 8, 2013

  Actual Average Record
Temperature  
Mean Temperature 81 °F -  
Max Temperature 93 °F 88 °F 98 °F (1977)
Min Temperature 72 °F 67 °F 59 °F (1950)
Cooling Degree Days 16    
Growing Degree Days 31 (Base 50)    
Moisture  
Dew Point 71 °F    
Average Humidity 76    
Maximum Humidity 92    
Minimum Humidity 49    
Precipitation  
Precipitation 0.00 in - - ()
Sea Level Pressure  
Sea Level Pressure 30.05 in    
Wind  
Wind Speed 2 mph (SE)    
Max Wind Speed 8 mph    
Max Gust Speed -    
Visibility 10 miles    
Events      
Averages and records for this station are not official NWS values.
T = Trace of Precipitation, MM = Missing Value Source: NWS Daily Summary

Daily Weather History Graph

Daily Weather History Graph

Search for Another Location

Airport:

Trip Planner

Search our weather history database for the weather conditions in past years. The results will help you decide how hot, cold, wet, or windy it might be!

Date:

Astronomy

Aug. 08, 2013 Rise Set
Actual Time 6:23 AM EDT 8:07 PM EDT
Civil Twilight 5:55 AM EDT 8:35 PM EDT
Nautical Twilight 5:22 AM EDT 9:08 PM EDT
Astronomical Twilight 4:46 AM EDT 9:43 PM EDT
Moon 8:02 AM EDT (8/8) 8:51 PM EDT (8/8)
Length of Visible Light 14h 39m
Length of Day
13h 44m
Waxing Crescent, 3% of the Moon is Illuminated
Aug 8
Waxing Crescent
Aug 14
First Quarter
Aug 20
Full
Aug 28
Last Quarter
Sep 5
New

Hourly Weather History & Observations

Time (EDT) Temp. Heat Index Dew Point Humidity Pressure Visibility Wind Dir Wind Speed Gust Speed Precip Events Conditions
12:15 AM 75.4 °F - 70.2 °F 84% 30.08 in 10.0 mi Calm Calm - N/A   Clear
12:35 AM 74.7 °F - 70.2 °F 86% 30.07 in 10.0 mi Calm Calm - N/A   Clear
12:55 AM 74.3 °F - 70.2 °F 87% 30.07 in 10.0 mi ESE 3.5 mph - N/A   Clear
1:15 AM 74.1 °F - 70.3 °F 88% 30.07 in 10.0 mi Calm Calm - N/A   Clear
1:35 AM 74.1 °F - 70.3 °F 88% 30.06 in 10.0 mi Calm Calm - N/A   Clear
1:55 AM 73.9 °F - 70.3 °F 88% 30.07 in 10.0 mi Calm Calm - N/A   Clear
2:15 AM 73.9 °F - 70.5 °F 89% 30.06 in 10.0 mi Calm Calm - N/A   Clear
2:35 AM 73.9 °F - 70.5 °F 89% 30.07 in 10.0 mi SE 3.5 mph - N/A   Clear
2:55 AM 74.1 °F - 70.3 °F 88% 30.07 in 10.0 mi Calm Calm - N/A   Clear
3:15 AM 73.9 °F - 70.5 °F 89% 30.07 in 10.0 mi Calm Calm - N/A   Clear
3:35 AM 73.6 °F - 70.5 °F 90% 30.07 in 10.0 mi Calm Calm - N/A   Scattered Clouds
3:55 AM 73.0 °F - 70.2 °F 91% 30.06 in 10.0 mi Calm Calm - N/A   Clear
4:15 AM 72.7 °F - 70.2 °F 92% 30.07 in 7.0 mi Calm Calm - N/A   Clear
4:35 AM 72.7 °F - 70.3 °F 92% 30.06 in 10.0 mi Calm Calm - N/A   Clear
4:55 AM 73.0 °F - 70.3 °F 91% 30.06 in 10.0 mi ESE 3.5 mph - N/A   Clear
5:15 AM 73.2 °F - 70.3 °F 91% 30.06 in 10.0 mi Calm Calm - N/A   Clear
5:35 AM 73.4 °F - 70.3 °F 90% 30.06 in 10.0 mi Calm Calm - N/A   Clear
5:55 AM 73.0 °F - 70.2 °F 91% 30.06 in 10.0 mi Calm Calm - N/A   Clear
6:15 AM 72.5 °F - 70.0 °F 92% 30.06 in 10.0 mi Calm Calm - N/A   Clear
6:35 AM 72.5 °F - 70.2 °F 92% 30.07 in 10.0 mi Calm Calm - N/A   Clear
6:55 AM 72.5 °F - 70.0 °F 92% 30.07 in 10.0 mi Calm Calm - N/A   Clear
7:15 AM 72.5 °F - 70.2 °F 92% 30.06 in 10.0 mi Calm Calm - N/A   Clear
7:35 AM 73.2 °F - 70.7 °F 92% 30.07 in 10.0 mi Calm Calm - N/A   Clear
7:55 AM 74.7 °F - 71.1 °F 88% 30.07 in 10.0 mi Calm Calm - N/A   Clear
8:15 AM 76.8 °F - 72.0 °F 85% 30.07 in 10.0 mi SE 3.5 mph - N/A   Clear
8:35 AM 78.3 °F - 72.3 °F 82% 30.08 in 10.0 mi SSE 6.9 mph - N/A   Mostly Cloudy
8:55 AM 77.0 °F - 71.6 °F 83% 30.08 in 10.0 mi SSE 4.6 mph - N/A   Overcast
9:15 AM 76.5 °F - 71.6 °F 85% 30.08 in 10.0 mi SE 3.5 mph - N/A   Overcast
9:35 AM 77.9 °F - 71.8 °F 81% 30.08 in 10.0 mi SSE 3.5 mph - N/A   Scattered Clouds
9:55 AM 81.0 °F 85.1 °F 71.6 °F 73% 30.08 in 10.0 mi South 6.9 mph - N/A   Clear
10:15 AM 82.8 °F 87.9 °F 72.0 °F 70% 30.08 in 10.0 mi South 5.8 mph - N/A   Clear
10:35 AM 83.5 °F 88.8 °F 72.0 °F 68% 30.08 in 10.0 mi SE 6.9 mph - N/A   Scattered Clouds
10:55 AM 83.5 °F 88.8 °F 72.0 °F 68% 30.08 in 10.0 mi SSE 8.1 mph - N/A   Clear
11:15 AM 84.2 °F 90.3 °F 72.7 °F 68% 30.08 in 10.0 mi SSW 4.6 mph - N/A   Scattered Clouds
11:35 AM 84.9 °F 91.1 °F 72.3 °F 66% 30.07 in 10.0 mi SSE 6.9 mph - N/A   Scattered Clouds
11:55 AM 86.0 °F 91.8 °F 71.8 °F 62% 30.07 in 10.0 mi SE 4.6 mph - N/A   Scattered Clouds
12:15 PM 85.5 °F 91.1 °F 71.8 °F 63% 30.07 in 10.0 mi SSW 3.5 mph - N/A   Mostly Cloudy
12:35 PM 84.9 °F 90.7 °F 71.8 °F 65% 30.06 in 10.0 mi South 5.8 mph - N/A   Mostly Cloudy
12:55 PM 84.9 °F 91.1 °F 72.3 °F 66% 30.06 in 10.0 mi SE 5.8 mph - N/A   Mostly Cloudy
1:15 PM 85.5 °F 91.1 °F 71.6 °F 63% 30.06 in 10.0 mi ESE 6.9 mph - N/A   Scattered Clouds
1:35 PM 86.5 °F 91.8 °F 70.5 °F 59% 30.06 in 10.0 mi SSE 5.8 mph - N/A   Clear
1:55 PM 87.1 °F 90.9 °F 68.7 °F 54% 30.05 in 10.0 mi ESE 6.9 mph - N/A   Scattered Clouds
2:15 PM 88.2 °F 92.9 °F 69.6 °F 54% 30.05 in 10.0 mi SSE 3.5 mph - N/A   Clear
2:35 PM 88.5 °F 93.5 °F 70.0 °F 54% 30.04 in 10.0 mi SSE 4.6 mph - N/A   Scattered Clouds
2:55 PM 88.2 °F 94.1 °F 71.1 °F 57% 30.03 in 10.0 mi SE 4.6 mph - N/A   Mostly Cloudy
3:15 PM 88.7 °F 94.8 °F 71.1 °F 56% 30.02 in 10.0 mi SE 4.6 mph - N/A   Mostly Cloudy
3:35 PM 86.4 °F 91.4 °F 70.7 °F 59% 30.02 in 10.0 mi Calm Calm - N/A   Overcast
3:55 PM 88.0 °F 93.4 °F 70.5 °F 56% 30.02 in 10.0 mi SE 6.9 mph - N/A   Overcast
4:15 PM 88.2 °F 93.7 °F 70.9 °F 56% 30.01 in 10.0 mi SE 3.5 mph - N/A   Mostly Cloudy
4:35 PM 89.8 °F 95.6 °F 70.3 °F 53% 30.00 in 10.0 mi South 6.9 mph - N/A   Mostly Cloudy
4:55 PM 90.0 °F 95.9 °F 70.5 °F 53% 30.00 in 10.0 mi SSE 4.6 mph - N/A   Mostly Cloudy
5:15 PM 90.3 °F 94.7 °F 68.5 °F 49% 30.01 in 10.0 mi South 6.9 mph - N/A   Scattered Clouds
5:35 PM 89.2 °F 94.5 °F 70.2 °F 53% 30.00 in 10.0 mi SE 8.1 mph - N/A   Scattered Clouds
5:55 PM 87.6 °F 93.9 °F 71.6 °F 59% 30.01 in 10.0 mi SE 6.9 mph - N/A   Clear
6:15 PM 86.9 °F 92.9 °F 71.6 °F 60% 30.00 in 10.0 mi SE 5.8 mph - N/A   Clear
6:35 PM 87.1 °F 94.1 °F 72.7 °F 62% 30.00 in 10.0 mi SE 5.8 mph - N/A   Clear
6:55 PM 86.0 °F 92.6 °F 72.5 °F 64% 30.00 in 10.0 mi SE 4.6 mph - N/A   Clear
7:15 PM 85.3 °F 92.2 °F 73.4 °F 67% 30.01 in 10.0 mi Calm Calm - N/A   Clear
7:35 PM 84.4 °F 91.3 °F 73.8 °F 70% 30.01 in 10.0 mi Calm Calm - N/A   Clear
7:55 PM 82.9 °F 89.4 °F 73.8 °F 74% 30.01 in 10.0 mi ESE 3.5 mph - N/A   Clear
8:15 PM 81.7 °F 87.3 °F 73.9 °F 77% 30.01 in 10.0 mi ESE 3.5 mph - N/A   Clear
8:35 PM 81.0 °F 86.2 °F 73.9 °F 79% 30.02 in 10.0 mi SE 3.5 mph - N/A   Scattered Clouds
8:55 PM 80.6 °F 85.7 °F 74.1 °F 81% 30.03 in 10.0 mi SE 3.5 mph - N/A   Scattered Clouds
9:15 PM 80.2 °F 84.9 °F 73.9 °F 81% 30.04 in 10.0 mi SE 3.5 mph - N/A   Clear
9:35 PM 79.7 °F - 73.8 °F 82% 30.04 in 10.0 mi SSE 3.5 mph - N/A   Clear
9:55 PM 79.9 °F - 73.6 °F 81% 30.05 in 10.0 mi SSE 3.5 mph - N/A   Clear
10:15 PM 79.7 °F - 73.6 °F 81% 30.05 in 10.0 mi SSE 3.5 mph - N/A   Clear
10:35 PM 79.0 °F - 73.4 °F 83% 30.04 in 10.0 mi Calm Calm - N/A   Clear
10:55 PM 78.1 °F - 72.9 °F 84% 30.03 in 10.0 mi Calm Calm - N/A   Clear
11:15 PM 77.5 °F - 72.7 °F 85% 30.04 in 10.0 mi SSE 3.5 mph - N/A   Clear
11:35 PM 77.9 °F - 72.7 °F 84% 30.03 in 10.0 mi SSE 4.6 mph - N/A   Clear
11:55 PM 77.7 °F - 72.7 °F 84% 30.03 in 10.0 mi SSE 4.6 mph - N/A   Clear